STARLINK-2628, 48359

Orbit data source: Space-Track

STARLINK-2628, 48359 is a payload satellite owned by SpaceX/Seattle (US) in LEO that was launched on Tue, 04 May 2021 UTC via an FALCON 9 launch vehicle from the Air Force Eastern Test Range (AFETR). Payload-class satellites include a variety of spacecraft equipped with specific instruments for various scientific and technological missions. These include communications satellites like Starlink; space stations such as the ISS; scientific satellites like the Hubble; Earth observation satellites from companies like Planet Labs, Umbra, and HawkEye 360; GPS; miniature CubeSats for education and research; and military/defense satellites.

Loading next visibility...
Identifier
48359, 2021-038G
Orbit
LEO
Country
Flag of USUS
Related business
Manufacturer
SpaceX/Seattle
Mission
Operational Commercial Communications
Bus & Motor
STARLINK, Unknown motor
Mass
260 kg wet, ~248 kg dry
Launch date (UTC)
2021-05-04 (5 years ago)
Launch vehicle
FALCON 9
Launch site
Air Force Eastern Test Range (AFETR)
Object type
Payload
Rocket body
Debris
Shape & HBR
Box + 1 Pan, 10.1 m
Radar Cross Section
13.562 m², Large (>1 m²)

Expand to show TLE details & history
Last TLE update: 2 days ago

TLE from 2 days ago
0 STARLINK-2628
1 48359U 21038G   26171.45785899 -.00000202  00000-0  52442-5 0  9992
2 48359  53.1599 240.3724 0001164  78.6186 281.4946 15.31700882282813
Epoch: 2026-06-20T10:59Z
TLE epoch observation values (Epoch: 2026-06-20T10:59:19.016Z)
Latitude
-0.00004°
Longitude
166.87093°
Altitude
471.479 km
Speed
7.632 km/s
True Right ascension
16h 01m 29s
True Declination
0° 00' 00"
Sunlit
Object was in full shadow at epoch
Visualization orbit readout
Latitude
Unknown
Longitude
Unknown
Altitude
Unknown
Speed
Unknown
Apparent Right ascension
Unknown
Apparent Declination
Unknown
Sunlit
N/A
Visualization observer readout
Local Sidereal Time
21:25:42
Azimuth
Unknown
Elevation
Unknown
Doppler factor
Unknown
Orbital elements
Apogee altitude
471.791 km
Perigee altitude
470.197 km
Semi-major axis
6,849.131 km
Eccentricity
0.00012
Inclination
53.1599°
RAAN
240.3724°
Arg. of periapsis
78.6186°
True anomaly
281.48153°
Mean anomaly
281.4946°
Eccentric anomaly
281.48806°
Mean motion
3.82904 °/min
Orbital period
94.02 mins
BSTAR
0.0000052442
Loading maneuver chart data...
Computing Atmospheric mass density...

Documentation

Showing up to 5 results
|